Location: ??????
(55.2000°N, 38.3000°E)
Time: 08:16:50
(UTC+00:00)

H-2A R/B - Pass Details

Date: 15 November 2025
Orbit: 522 x 537 km, 98.2° (Epoch: 14 December)

Event Time Altitude Azimuth Distance (km) Brightness Sun altitude
Rises 02:56:26 0° 9° (N) 2,679 6.9 -17.2°
Reaches altitude 10° 02:58:41 10° 0° (N) 1,782 5.8 -16.9°
Enters shadow 03:01:56 32° 303° (WNW) 922 3.9 -16.4°
